Theta_e
318 318 316 318 318 319 320 321 324 321 320 319 318 319 319 319 320 321 321 321 321 323 328 329 328 327 326 325 324 324 323 322 322 321 321 321 320 320 319 319 319 319 319 319
312 313 313 314 315 316 317 317 319 321 321 319 319 319 319 319 319 319 319 320 321 321 322 326 328 328 327 326 325 324 324 324 323 322 321 321 320 320 320 320 320 320 320 320
315 314 314 316 315 315 316 320 320 320 316 317 317 317 318 319 320 320 320 320 321 321 320 321 323 326 327 326 325 325 324 324 324 323 323 322 321 320 320 320 320 320 320 320
316 319 317 314 314 316 318 316 317 317 316 320 320 320 320 318 319 319 319 319 320 321 321 320 320 323 325 326 325 325 325 324 324 323 323 322 322 321 321 320 320 320 320 320
317 314 312 312 312 314 315 314 319 319 319 321 321 321 320 319 319 319 319 319 317 318 318 317 318 320 323 325 325 324 324 324 323 323 322 322 322 321 321 320 321 321 321 320
316 313 315 313 315 316 315 314 316 318 317 316 319 324 322 319 319 319 319 320 320 321 320 318 317 317 320 323 325 325 324 324 323 323 322 322 322 322 319 320 319 319 318 316
314 316 315 313 312 316 316 316 314 314 313 313 316 317 318 318 318 318 318 320 321 321 321 320 320 321 321 321 324 324 325 324 323 323 322 321 319 316 318 316 313 309 307 304
313 314 315 314 314 314 313 313 314 315 315 317 317 316 316 318 318 318 318 319 320 321 318 316 319 321 323 323 324 323 322 321 321 320 317 315 315 311 310 307 303 298 296 293
312 312 313 315 313 313 314 315 315 316 316 316 317 316 317 318 318 318 318 319 319 318 315 313 314 317 321 317 318 318 317 313 310 310 310 310 308 303 301 299 295 291 290 287
313 312 311 312 313 313 312 312 313 312 311 314 315 317 318 317 317 316 317 318 318 317 314 310 309 309 312 311 311 308 305 303 302 301 299 300 299 298 295 294 291 289 287 285
310 310 311 311 311 311 310 310 310 308 307 307 306 309 309 312 309 309 311 311 313 313 309 306 304 302 303 305 305 302 299 297 295 294 293 292 291 292 292 292 292 289 287 285
310 311 310 310 310 307 308 308 307 305 303 302 301 302 302 302 301 301 301 299 298 297 298 297 295 295 298 299 300 297 295 293 291 290 289 287 286 286 289 290 289 289 287 287
308 306 307 308 308 305 305 303 302 301 299 298 298 297 298 297 293 295 295 294 292 291 291 291 291 292 293 298 295 293 291 290 289 288 287 286 286 285 284 283 285 286 286 284
298 299 306 303 302 301 300 299 297 296 295 293 294 293 293 292 290 289 288 288 288 288 288 287 287 286 289 290 293 292 290 289 288 286 285 284 284 284 283 283 282 282 282 282
295 296 297 299 298 295 294 293 294 292 290 290 289 288 288 287 285 284 284 284 284 284 283 283 283 283 285 287 286 286 286 285 285 284 284 283 283 283 282 282 282 281 280 280
293 296 296 295 294 293 291 290 290 289 288 288 287 285 283 283 281 280 280 280 280 280 280 280 280 281 281 282 282 282 282 282 283 283 283 284 283 283 283 283 283 282 281 280
291 293 292 293 292 291 290 288 288 286 285 284 283 282 281 280 280 279 278 277 277 277 278 278 278 279 280 280 281 281 281 281 281 281 281 281 281 282 281 281 279 278 277 277
288 288 288 288 289 288 287 285 284 282 281 280 279 278 278 278 278 278 277 277 276 275 275 276 277 278 278 279 280 280 279 278 278 278 278 278 278 278 279 278 278 277 275 275
285 285 285 285 284 284 283 282 280 279 278 278 277 277 277 276 276 276 276 276 276 276 274 275 275 275 275 276 277 277 277 276 276 276 276 276 276 276 276 276 275 275 274 274
283 283 282 282 281 281 280 279 278 278 277 277 277 276 276 276 275 275 274 273 272 272 272 273 274 273 274 274 274 274 274 274 274 273 273 274 274 273 272 272 273 273 272 271
281 280 279 279 278 277 277 277 276 276 275 275 274 273 273 272 273 275 275 273 271 271 271 270 271 272 272 272 272 272 272 272 272 271 271 271 271 270 270 270 269 269 269 269
280 279 278 278 277 276 276 275 275 275 274 274 274 274 273 273 272 271 270 271 270 269 269 269 269 268 269 270 270 270 270 269 269 269 269 269 268 268 268 268 267 267 267 267
279 278 277 277 276 276 275 274 274 274 273 272 272 271 271 271 271 272 270 268 268 268 268 267 266 266 267 268 268 267 267 267 267 266 266 266 266 266 266 265 265 265 265 264
278 277 277 276 276 275 275 274 273 272 272 271 271 271 272 271 270 269 268 266 266 265 265 265 265 265 266 266 266 266 266 266 266 265 264 264 264 264 264 263 263 263 262 262
277 277 276 276 276 275 274 273 273 272 271 271 270 269 269 268 268 267 266 265 265 266 265 264 263 264 265 264 264 264 264 264 264 264 263 263 263 263 263 262 261 261 260 260
275 274 273 273 274 274 274 274 273 272 271 270 269 268 267 266 266 265 264 264 264 264 264 263 263 264 264 263 263 263 263 263 263 262 262 262 261 261 260 260 259 259 259 258
274 274 274 273 272 271 272 272 272 271 270 269 268 267 266 265 264 264 264 264 264 264 263 263 263 262 262 263 263 262 262 262 260 261 261 260 260 260 258 258 258 258 257 257
Wind_Speed
6 4 4 5 7 7 9 8 8 11 13 12 12 14 16 16 17 18 16 13 10 10 12 15 21 25 27 30 32 34 35 35 36 35 34 33 33 34 35 34 35 36 35 36
9 11 10 12 12 12 13 15 15 15 16 13 14 16 15 16 16 17 18 16 13 13 12 14 20 24 26 28 31 33 34 37 34 33 33 35 34 33 33 34 35 34 35 34
10 5 9 11 16 17 13 8 7 8 9 3 10 12 15 17 16 14 14 17 13 12 12 13 20 24 27 29 27 31 33 31 31 32 33 33 31 31 31 32 30 32 31 32
2 3 8 3 4 9 10 8 8 10 7 8 11 17 17 17 16 16 15 16 15 11 8 15 17 19 23 24 28 29 30 29 29 30 29 28 29 30 30 29 29 28 29 30
4 10 13 14 8 7 7 6 4 5 5 8 12 13 4 15 13 14 14 14 12 13 15 12 14 18 21 24 28 28 29 29 29 29 28 28 28 27 26 25 24 26 24 27
5 6 6 5 9 4 3 5 6 6 10 14 14 7 7 13 13 14 12 12 13 16 15 15 13 13 18 24 26 28 28 27 25 25 26 26 25 22 18 17 21 26 26 26
12 7 4 4 7 4 8 5 12 11 14 15 10 9 16 17 16 16 16 14 14 14 13 14 12 8 14 18 23 24 22 23 23 22 19 17 17 20 25 24 21 17 15 12
9 7 9 3 3 3 9 10 11 13 13 15 15 16 13 14 17 16 15 13 11 9 10 12 11 9 10 11 7 8 15 19 20 20 24 23 22 21 21 21 21 18 18 15
6 6 4 2 6 7 8 8 9 14 17 16 17 17 15 11 13 12 14 11 10 9 9 12 12 10 5 3 9 11 11 13 19 20 20 22 21 19 19 19 20 17 17 18
3 6 6 4 4 8 9 10 10 11 15 16 15 15 12 10 8 10 11 11 14 10 10 13 14 14 8 4 7 14 17 18 18 22 19 20 18 15 15 18 19 19 18 19
10 11 9 6 8 12 13 11 12 12 13 14 14 13 13 9 8 10 12 16 15 12 11 14 14 14 15 8 7 14 15 17 18 20 23 25 20 14 15 10 16 21 21 23
8 6 4 6 11 9 13 14 13 12 13 13 12 11 11 8 10 13 13 13 15 17 17 17 15 15 14 12 8 14 16 14 15 19 21 21 25 30 19 14 16 19 25 28
5 10 10 12 10 9 11 13 12 10 10 11 11 9 10 10 14 18 12 16 14 14 15 19 18 17 14 16 11 17 19 17 18 17 20 19 22 22 26 30 29 24 25 28
10 11 6 9 8 10 11 12 10 9 9 10 11 10 12 11 14 17 17 16 15 18 20 21 23 27 23 17 18 19 21 23 24 19 20 26 23 22 21 25 25 28 28 28
11 9 8 9 7 8 9 9 7 7 7 8 9 10 15 10 11 16 13 15 17 22 23 24 25 25 24 21 29 26 25 24 25 28 25 24 23 23 26 26 26 26 24 23
12 11 5 7 8 6 7 8 7 7 7 7 8 12 15 17 17 19 22 23 23 21 23 24 25 22 23 26 28 30 31 30 30 29 26 23 23 21 21 22 21 21 18 14
10 9 11 10 8 6 7 6 6 7 7 8 11 11 16 19 20 22 23 24 27 28 26 26 26 28 29 30 28 27 28 29 28 26 24 22 22 23 18 19 20 20 18 14
7 6 6 6 6 4 5 7 10 11 10 12 14 16 18 18 15 19 20 21 27 32 32 30 29 30 30 29 26 24 24 25 26 24 22 22 21 21 19 19 18 18 16 15
7 6 6 7 7 7 8 9 14 16 15 16 17 19 22 22 21 21 22 26 26 25 25 26 29 29 29 27 25 24 22 22 22 21 20 20 21 20 19 17 17 16 14 13
7 9 10 11 12 11 13 15 16 19 17 17 18 20 22 21 21 24 26 29 24 19 20 22 23 25 23 25 24 23 22 22 22 21 20 19 19 18 17 16 15 13 12 11
9 12 13 14 16 18 17 16 18 20 19 19 21 21 21 21 20 18 22 20 20 20 22 24 22 20 20 19 21 20 20 20 20 19 17 15 15 14 14 13 12 11 10 8
10 12 13 15 17 19 19 19 19 19 20 20 19 19 20 21 21 24 23 19 16 18 19 20 20 20 19 19 19 19 18 18 17 15 15 14 13 13 12 11 10 9 8 7
13 14 16 16 17 19 20 20 20 20 21 21 20 20 20 18 16 14 15 16 16 17 18 18 18 19 19 18 18 18 18 17 16 15 13 12 12 11 10 9 8 7 7 7
14 15 15 14 15 17 18 17 19 19 20 20 18 16 14 15 17 16 15 15 17 17 17 16 17 19 17 17 16 16 15 14 12 11 10 10 9 9 8 7 7 7 6 6
12 13 12 12 13 13 13 13 15 15 17 17 17 17 16 15 14 12 12 13 13 13 14 16 17 16 15 14 13 13 11 10 9 9 9 8 8 7 7 6 5 5 5 5
10 11 12 13 11 10 9 10 12 11 12 13 14 13 13 13 12 12 12 12 12 12 12 12 12 12 12 11 11 10 9 8 8 8 7 6 6 6 6 5 5 5 5 5
10 8 10 11 11 10 10 9 10 10 10 10 12 10 11 11 11 11 10 10 10 10 9 9 10 10 9 8 8 7 6 5 5 4 4 5 5 5 5 5 6 6 6 6
Wind_Direction
277 278 271 259 260 254 247 254 259 276 274 274 267 274 287 292 298 294 288 286 256 224 214 208 205 207 209 209 207 207 209 211 213 214 217 219 219 217 216 218 222 223 223 224
250 277 273 268 259 258 261 264 255 253 265 258 267 273 280 283 286 282 286 286 276 251 228 216 211 210 208 209 206 203 209 214 216 214 214 217 218 220 221 220 222 224 225 224
252 257 274 270 247 250 257 238 254 249 337 328 290 285 278 275 277 278 282 285 275 257 246 235 224 215 211 209 204 207 208 212 213 213 215 217 217 218 221 223 223 224 227 226
240 217 242 286 317 275 227 279 281 296 328 321 313 306 288 283 297 300 306 299 297 292 278 261 246 221 223 209 204 207 212 210 210 211 213 214 214 217 217 220 221 225 229 232
231 223 270 273 271 231 220 273 15 346 312 315 332 306 84 2 333 308 308 303 295 300 298 289 261 245 225 213 209 205 209 211 207 206 208 209 211 213 215 215 215 220 222 222
185 236 234 51 90 18 297 217 27 358 0 345 331 329 5 348 349 355 339 323 317 320 307 293 283 249 227 224 213 212 208 207 206 205 205 207 207 204 196 194 204 216 217 223
225 245 266 295 305 239 247 32 347 336 326 326 317 319 314 316 317 326 335 348 339 327 319 311 303 271 242 230 223 220 207 200 197 196 194 192 183 188 196 198 195 195 192 197
226 242 259 3 206 249 1 336 337 328 326 319 310 305 309 307 320 322 323 338 354 348 344 332 332 305 259 242 243 179 162 159 164 172 172 172 188 184 183 175 163 155 149 134
205 216 102 98 2 39 14 341 339 323 326 324 310 307 310 303 311 327 323 334 349 12 19 10 2 352 304 125 160 156 152 140 141 149 160 159 168 172 159 163 149 135 126 114
242 239 260 12 62 7 5 347 345 342 334 347 335 322 321 325 355 352 349 348 350 7 33 27 19 26 23 84 125 135 125 121 121 122 123 130 137 154 150 147 136 130 125 119
261 263 308 274 27 355 341 351 348 353 358 355 346 344 337 351 24 10 354 349 360 22 23 35 33 35 37 45 112 105 100 106 110 114 112 104 101 109 126 143 161 140 135 133
280 32 323 302 349 1 340 351 353 349 357 1 356 353 349 3 4 43 5 3 18 15 24 20 30 25 40 48 88 96 90 91 99 98 94 95 97 82 88 116 132 146 147 145
338 341 313 308 315 20 351 351 354 354 6 357 355 1 14 15 14 45 22 20 27 36 35 38 31 41 35 65 71 91 89 89 88 94 99 98 92 100 101 87 97 110 117 119
19 359 331 27 333 348 351 350 357 359 18 14 355 7 43 29 27 37 35 32 30 42 45 48 43 33 47 59 100 97 99 99 99 89 92 97 96 97 98 96 96 90 96 104
354 339 309 301 357 8 360 353 0 10 19 42 22 33 56 49 45 39 31 46 48 47 42 45 44 37 51 70 69 64 71 79 80 82 83 88 94 97 96 94 95 97 96 94
327 314 348 347 349 358 8 15 12 19 22 40 55 51 69 70 63 55 49 49 55 47 40 42 45 46 61 70 72 73 70 74 81 84 81 81 85 84 88 99 100 97 98 103
332 339 333 331 341 359 19 35 43 42 39 43 56 70 75 77 71 63 57 55 55 51 48 46 44 54 63 72 73 72 73 72 72 69 71 76 78 83 83 82 84 86 81 74
329 329 345 335 340 28 48 55 68 66 64 62 71 72 71 69 69 65 59 59 57 50 43 47 53 59 61 64 69 72 73 69 70 71 78 77 77 80 83 87 90 90 87 77
12 20 25 35 47 70 78 76 77 80 80 79 75 74 76 74 74 70 65 58 54 49 33 44 56 59 51 57 64 66 67 69 72 71 71 72 73 77 79 82 84 84 83 77
46 57 65 67 69 78 83 82 90 86 82 82 81 75 71 67 68 69 65 62 54 53 51 50 53 55 54 54 62 64 64 65 68 66 66 69 70 72 74 72 73 73 71 70
63 69 71 75 77 77 79 83 88 85 81 81 83 78 76 67 63 68 67 61 41 45 50 51 53 52 54 58 61 65 70 71 69 68 68 69 72 70 69 69 69 69 69 66
69 71 71 76 79 76 74 77 79 80 78 76 75 78 79 74 69 67 61 63 51 51 55 54 53 56 60 62 64 66 68 69 71 71 70 69 71 71 68 67 68 66 63 58
73 74 74 73 78 80 77 73 72 75 77 74 74 72 71 67 59 63 61 47 55 56 62 59 56 58 62 66 66 66 67 67 67 68 69 69 68 69 67 62 58 53 43 32
78 78 79 80 84 82 78 74 77 77 78 76 72 70 72 75 70 66 67 58 56 60 61 58 58 59 62 62 62 63 63 65 66 68 67 68 65 62 57 45 37 27 14 4
72 73 74 79 80 82 86 88 84 81 79 76 72 68 68 68 76 67 63 58 59 62 61 60 57 57 60 60 61 62 64 67 66 63 59 54 47 38 28 16 9 357 355 352
74 73 70 65 70 79 82 89 88 88 90 85 75 70 68 67 68 67 62 62 64 65 63 56 56 54 54 53 52 54 53 49 45 48 45 33 18 9 360 354 351 348 341 336
75 78 84 76 67 69 77 87 93 88 87 92 87 73 70 67 64 64 62 61 61 59 55 49 43 42 42 40 37 37 37 31 44 32 13 0 354 347 343 341 333 329 326 325